Regional Weather Roundup
Issued by NWS

Home | Current Version | Previous Version | Graphics & Text | Print | Product List | Glossary On
Versions: 1 2 3 4 5 6 7 8 9 10 11 12 13 14 15 16 17 18 19 20 21 22 23 24 25 26 27 28 29 30 31 32 33 34 35 36 37 38 39 40 41 42 43 44 45 46 47 48 49 50
000
ASUS43 KLMK 011602
RWRKY
KENTUCKY REGIONAL WEATHER ROUNDUP
NATIONAL WEATHER SERVICE LOUISVILLE KY
1200 PM EDT TUE SEP 01 2015

NOTE "FAIR" INDICATES FEW OR NO CLOUDS BELOW 12,000 FEET
WITH NO SIGNIFICANT WEATHER AND/OR OBSTRUCTIONS TO VISIBILITY.

KYZ001>023-026-027-061>063-070>075-011700-
WESTERN AND SOUTH CENTRAL KENTUCKY

CITY           SKY/WX    TMP DP  RH WIND       PRES   REMARKS
PADUCAH        SUNNY     85  67  54 CALM      30.14R
HENDERSON      SUNNY     84  66  54 CALM      30.13S
OWENSBORO      SUNNY     87  69  54 S7        30.15S HX  91
HOPKINSVILLE   MOSUNNY   84  66  54 SE3       30.14F
BOWLING GREEN  SUNNY     85  66  53 VRB3      30.16S
GLASGOW        SUNNY     85  65  51 SE3       30.17S
$$

KYZ024-025-028>034-038-045-046-053-011700-
NORTH CENTRAL KENTUCKY

CITY           SKY/WX    TMP DP  RH WIND       PRES   REMARKS
LOUISVILLE/SDF MOSUNNY   85  66  53 SW6       30.15S
LOUISVILLE/LOU SUNNY     84  66  54 S5        30.16S
FORT KNOX      MOSUNNY   85  66  54 W6        30.15S
$$

KYZ035>037-039>044-047>052-055>060-089>105-011700-
NORTHEAST KENTUCKY

CITY           SKY/WX    TMP DP  RH WIND       PRES   REMARKS
LEXINGTON      SUNNY     84  64  50 NW5       30.18S
COVINGTON      MOSUNNY   84  67  56 W5        30.16S
FRANKFORT      SUNNY     83  65  54 E5        30.16S
$$

KYZ054-064>069-076>088-106>120-011700-
SOUTHEAST KENTUCKY

CITY           SKY/WX    TMP DP  RH WIND       PRES   REMARKS
JACKSON        MOSUNNY   81  66  60 VRB3      30.20S
LONDON         SUNNY     84  64  50 E7        30.19F
SOMERSET       NOT AVBL
MIDDLESBORO    SUNNY     78  68  70 CALM      30.19F
MONTICELLO     SUNNY     84  67  56 SE7       30.20F
$$



USA.gov is the U.S. government's official web portal to all federal, state and local government web resources and services.